Dauntless Aviation
Greetings, Guest! To participate, [sign up for a free account] or [log in]
Airports Europe Germany


Altdorf-Wallburg, GERMANY

Airport Info


Latitude / Longitude: 48°16'11"N / 7°50'31"E
  48°16.188'N / 7°50.532'E
  48.2698 / 7.8422
Satellite photo at:
Airport distance calculator
Weather Reports


18.2nm NW
LFST 252330Z AUTO 32003KT 250V020 9999 OVC033 04/02 Q1009


5.8nm NW
TAF EDTL 251700Z 2518/2524 19005KT 9999 BKN030 TEMPO 2518/2520 SHRA BKN015CB
18.2nm NW
TAF LFST 251700Z 2518/2618 21007KT 9999 FEW010 BKN020 BECMG 2521/2524 32010KT TEMPO 2518/2522 3000 SHRA BKN005 BKN015TCU TEMPO 2522/2618 5000 -SHRA BKN008
32.3nm N
TAF EDSB 251700Z 2518/2618 21005KT 9999 BKN025 PROB30 TEMPO 2600/2609 BKN012 BECMG 2610/2612 30004KT


Dauntless Aviation

© 2007-2015 Dauntless Aviation, all rights reserved
Information provided via PilotNav comes from a variety of official and unofficial data sources. As errors are possible, do not use PilotNav for primary flight planning purposes. Verify any information that you receive via PilotNav with current and canonical charts and other official documents. The material in this database is subject to database copyrights held by Dauntless Aviation and may not be copied without the express permission of Dauntless Aviation - licenses for use of part of all of this data are available for purchase; enquire via the Dauntless Aviation helpdesk. A number of mechanisms and markers exist in the database to protect against and identify infringement / copyright. Automated queries against this website are stictly prohibited, and all activity is logged and analyzed.